Back to catalog

CZ-6A DEB

AlivePO
NORAD 55532·DEBRIS·🇨🇳 China

Launched Nov 11, 2022 from Taiyuan Satellite Launch Center

Loading…

Next Passes (next 24 hours)

TLE

FreshSource: Space-Track

Epoch: Sep 13, 2026, 18:26 UTC

1 55532U 22151YE  26256.76852154  .00027293  00000-0  21695-2 0  9998
2 55532  98.6339 344.2459 0035367 318.6263  41.2280 14.99914230198966

Track CZ-6A DEB in real time with AllMySat

Download on the App Store